Theta_e
299 299 302 303 304 301 297 296 294 296 297 302 310 311 315 322 323 322 323 323 323 325 327 329 329 327 328 331 333 334 331 331 330 330 331 332 331 328 328 328 327 326 326 326
297 304 305 304 306 307 306 302 300 300 299 306 312 317 316 317 318 320 320 324 326 328 331 333 331 330 330 330 333 334 331 330 330 332 332 331 330 328 328 322 317 319 320 323
293 301 302 295 302 304 306 306 305 300 303 312 314 316 317 317 316 319 321 325 327 328 326 323 323 325 326 328 331 334 333 334 332 332 330 329 329 326 321 316 311 310 314 318
294 296 289 299 307 309 307 311 311 309 311 314 315 317 318 318 318 322 324 327 323 321 318 318 320 322 324 327 328 330 331 333 332 330 329 325 320 316 314 312 307 306 306 309
294 292 297 303 306 306 303 303 312 310 313 314 319 321 319 323 322 323 324 321 319 318 316 316 317 319 322 326 325 327 329 330 332 331 327 320 313 310 309 306 303 303 306 309
296 293 291 299 315 320 314 299 317 313 313 316 317 311 315 322 321 320 319 318 316 315 315 316 314 316 318 319 319 318 321 325 332 328 321 315 311 307 305 304 303 304 306 306
295 295 299 312 316 319 298 300 319 314 317 317 312 312 318 318 317 317 316 315 315 313 312 312 313 315 313 312 311 314 315 315 317 318 313 311 308 307 305 303 303 303 303 305
294 293 293 314 316 306 311 321 319 317 317 315 315 316 316 315 315 314 314 313 313 311 310 311 311 311 309 308 310 310 310 310 310 312 312 310 307 306 306 305 304 304 303 303
296 297 310 313 310 318 323 321 320 317 318 316 313 313 314 313 314 314 314 312 311 309 308 309 310 310 307 308 310 309 308 307 307 307 307 308 307 305 305 305 304 303 303 302
302 307 312 315 317 317 318 320 320 319 317 316 313 314 313 312 314 313 311 309 309 308 307 307 308 309 309 310 310 308 306 305 307 306 305 305 305 305 304 303 302 302 301 300
303 307 312 316 319 317 316 317 319 318 317 316 316 315 314 311 311 311 310 309 309 308 307 307 308 307 307 306 305 303 302 302 302 302 301 299 298 300 300 300 302 301 300 300
301 309 307 309 319 323 320 320 319 317 315 315 315 312 311 310 311 311 308 308 308 308 308 307 307 305 305 305 304 302 300 300 299 298 297 297 295 293 296 297 295 293 293 294
308 311 314 315 318 319 318 319 318 316 315 312 313 312 311 310 311 311 310 309 309 309 308 307 307 305 303 303 302 299 296 295 295 293 291 291 289 290 288 290 294 292 291 291
312 313 309 314 313 319 320 321 318 316 314 313 311 311 311 310 311 311 310 311 311 310 309 310 307 304 302 297 295 294 293 296 290 289 289 288 288 288 287 287 286 286 290 290
313 313 311 312 315 316 317 316 313 310 311 310 310 310 310 310 310 311 312 312 311 310 308 306 304 300 298 297 295 294 294 292 290 289 289 289 287 287 286 286 286 286 286 289
308 312 314 313 314 315 315 315 311 309 309 308 308 308 311 311 312 312 313 311 306 304 305 305 302 302 302 300 297 296 295 298 294 290 291 289 289 290 288 287 286 286 287 287
305 304 308 310 314 313 313 313 312 311 310 308 308 310 310 312 311 312 311 308 308 307 306 306 305 306 305 302 298 297 297 297 298 294 293 291 291 292 292 290 288 288 288 289
307 309 313 313 313 313 312 313 313 313 311 310 310 311 311 310 310 308 308 307 306 305 306 306 306 306 306 303 301 300 299 298 299 297 296 295 294 295 296 294 292 291 290 292
306 308 311 313 313 314 313 313 314 314 312 311 311 310 310 310 309 308 307 305 305 305 308 310 313 311 307 308 306 303 303 302 300 302 302 301 299 298 298 298 296 296 295 293
307 309 311 312 313 315 313 314 315 314 313 312 309 307 306 307 308 306 306 305 306 309 313 311 310 308 309 310 314 310 307 303 303 302 300 300 299 298 298 297 298 297 295 291
307 308 310 311 311 314 315 314 314 313 313 312 309 310 309 310 308 310 308 308 307 310 311 313 312 309 307 304 303 303 303 304 304 301 302 300 299 298 299 299 299 297 294 290
305 310 312 312 311 311 313 315 315 315 313 311 311 310 309 310 311 310 311 310 309 307 307 307 306 309 307 306 302 302 299 301 299 302 301 300 301 300 299 299 298 297 295 291
309 312 311 309 308 307 310 311 310 311 309 308 306 308 310 311 311 308 304 306 307 304 305 305 298 306 305 300 299 298 298 299 299 300 301 301 302 302 302 301 300 297 295 293
309 310 309 310 310 310 308 310 310 309 310 310 311 311 311 309 308 310 308 305 303 305 304 302 302 303 303 301 300 298 297 298 298 297 296 295 297 296 298 300 300 299 295 292
308 308 309 308 308 308 309 310 310 309 309 310 310 310 310 311 310 308 310 308 303 304 304 302 302 301 300 300 299 299 298 298 297 296 295 295 295 294 295 295 295 294 294 294
306 306 306 306 307 308 309 309 308 309 309 308 310 311 311 310 309 309 308 305 305 304 307 306 306 303 301 300 299 299 297 297 296 295 294 294 294 294 295 294 295 296 294 293
306 304 307 306 308 308 309 309 308 307 308 309 308 309 309 308 307 307 304 307 306 307 307 306 305 303 303 302 299 297 295 294 294 295 295 295 294 294 293 294 294 294 293 293
Wind_Speed
5 4 4 6 3 9 6 6 7 7 8 10 18 12 14 13 8 8 10 10 8 7 5 2 4 3 4 5 6 6 6 6 6 4 4 5 5 6 5 7 7 7 7 8
1 0 3 3 1 3 2 5 5 4 8 2 9 10 6 9 8 9 6 4 6 5 2 5 6 5 3 5 6 6 6 5 6 6 6 5 6 6 7 7 7 7 7 7
4 2 1 4 4 3 2 2 6 4 5 5 6 14 13 12 9 11 9 10 3 8 8 5 6 3 4 4 3 6 6 4 4 5 8 6 7 8 7 7 6 7 6 7
3 3 2 8 6 3 3 1 1 2 4 9 6 7 7 6 4 5 3 2 8 9 7 5 4 4 3 3 3 3 5 5 6 7 7 8 8 7 7 6 6 5 6 6
4 3 4 2 5 5 4 5 3 6 6 4 8 7 5 1 3 7 7 7 8 8 5 4 6 5 4 5 4 5 4 5 8 10 9 9 8 6 6 8 6 5 5 7
2 3 6 3 8 8 5 3 9 4 12 11 7 5 4 6 13 12 11 9 9 7 5 6 4 5 6 5 5 7 5 4 7 9 10 10 9 7 5 6 6 4 9 8
3 2 5 5 14 8 2 8 12 3 4 4 2 1 10 11 11 10 10 10 9 7 6 6 4 4 6 5 7 5 6 8 8 9 9 10 9 7 7 7 7 8 9 9
2 3 6 8 4 1 3 4 4 7 7 14 12 13 9 11 11 11 10 9 6 7 6 4 4 3 5 8 5 6 8 9 9 9 7 6 10 8 7 7 9 8 9 8
5 5 3 4 2 3 2 3 5 14 15 19 17 16 14 13 6 7 6 6 4 6 5 4 4 4 8 4 6 8 11 10 10 11 9 7 7 8 6 6 6 5 5 7
3 3 2 4 3 3 2 7 10 14 18 18 19 16 16 8 6 4 4 5 5 5 5 5 5 7 6 5 7 10 11 10 9 9 10 7 6 6 5 6 5 5 6 6
1 1 3 1 1 4 1 3 10 9 10 14 14 12 17 15 7 5 4 3 3 4 5 6 6 8 7 7 9 11 10 8 8 7 9 8 7 5 5 3 4 5 4 5
5 5 4 2 3 4 4 6 6 10 6 3 9 14 14 11 9 9 6 5 5 5 7 6 7 8 8 7 8 9 9 7 5 6 6 6 7 7 15 11 12 10 9 5
5 3 3 4 3 1 3 6 3 4 7 11 10 15 14 14 8 10 8 5 5 5 7 7 7 7 7 7 7 7 8 7 6 6 5 6 4 6 7 7 12 9 9 8
2 7 3 3 4 3 5 6 9 9 8 10 8 8 8 9 11 10 7 6 6 6 6 5 7 7 6 6 6 7 6 9 5 4 4 5 5 5 4 6 4 2 5 4
6 3 2 2 5 4 6 5 9 8 9 9 6 10 11 11 10 9 8 8 6 6 6 7 6 5 6 6 6 6 7 5 4 4 4 4 4 4 3 4 4 4 2 2
5 4 4 4 5 6 5 5 8 7 6 7 8 7 9 9 9 8 7 8 8 6 5 7 7 5 6 6 7 5 5 9 5 4 4 4 3 4 4 3 4 3 3 3
4 3 3 4 6 6 7 5 6 8 7 8 10 10 10 10 9 8 7 6 6 6 6 5 6 6 6 6 6 4 4 4 6 4 4 4 4 4 4 4 3 3 3 3
8 8 10 8 9 8 7 7 7 8 8 9 9 11 11 11 10 7 6 5 5 4 5 6 6 7 6 6 6 4 5 5 5 5 4 5 5 4 4 4 4 4 3 3
9 9 9 8 8 8 9 9 9 7 8 8 8 9 9 9 8 7 7 8 7 6 5 5 8 7 6 7 7 5 5 7 7 8 7 8 5 5 6 5 5 5 4 5
8 8 7 5 7 9 9 8 9 8 8 9 8 8 7 6 7 7 6 5 4 3 2 5 5 3 1 3 7 5 5 6 7 7 6 6 7 6 6 8 7 7 6 5
7 5 7 6 4 5 8 9 11 11 10 11 11 10 8 8 7 6 6 5 6 6 5 8 6 5 3 1 4 3 3 0 4 6 5 6 5 5 6 7 7 6 6 5
6 7 8 9 9 8 7 6 5 8 10 9 7 9 9 8 9 9 6 7 3 10 8 5 5 2 2 6 4 1 3 3 2 3 4 4 4 5 6 6 7 6 6 6
6 8 9 8 11 11 9 9 6 4 7 8 9 10 8 6 7 9 7 5 5 7 7 4 1 2 5 2 1 1 3 3 3 1 3 4 5 5 6 8 8 7 7 7
10 10 10 7 12 12 13 9 9 7 9 10 9 9 10 8 7 6 8 9 11 6 4 2 5 4 8 4 2 3 3 4 3 3 2 3 3 3 4 5 6 6 6 6
10 10 10 15 12 9 11 10 10 10 12 11 11 9 9 5 7 4 5 6 7 3 2 4 7 6 2 2 2 3 4 3 2 2 2 3 2 3 3 4 5 5 5 6
11 9 9 11 8 7 6 7 9 7 8 9 7 8 8 6 5 6 4 3 2 1 1 3 4 4 4 4 4 3 4 3 1 2 3 4 4 4 4 3 4 4 5 5
9 10 9 9 7 7 6 7 8 7 7 8 8 6 6 4 4 4 2 1 2 3 4 5 4 5 5 4 4 4 3 3 3 4 4 3 3 4 4 4 4 4 5 5
Wind_Direction
216 210 200 217 167 159 163 190 171 250 204 192 200 183 182 185 183 133 172 161 183 173 131 211 204 190 171 173 157 171 173 171 198 193 166 132 109 88 67 49 42 32 43 50
223 121 298 241 228 73 119 116 288 338 259 239 131 142 175 193 172 172 205 162 174 143 122 132 136 130 167 174 166 161 180 195 165 152 134 120 108 95 77 65 45 50 39 46
253 39 344 347 223 147 220 183 171 228 267 146 146 161 185 193 188 163 174 206 148 104 102 95 88 111 89 87 103 172 179 178 147 142 122 117 107 101 90 81 74 56 43 45
200 42 165 242 283 274 236 185 173 294 186 202 145 90 87 50 120 121 152 87 75 82 70 54 42 34 47 30 69 101 182 155 137 115 121 107 97 98 93 84 63 64 51 49
148 171 272 314 29 19 337 285 214 159 136 152 116 87 64 17 100 112 110 94 91 86 79 54 37 13 46 49 34 51 342 169 149 137 130 117 99 89 84 90 71 60 58 63
112 149 202 241 305 318 289 278 333 285 154 152 140 136 171 127 123 114 113 113 104 89 83 70 29 35 74 54 47 44 20 23 132 132 126 118 112 103 82 81 79 64 71 54
157 212 287 314 304 297 111 255 305 134 69 126 116 154 129 115 102 101 97 92 89 88 83 59 35 83 86 80 55 34 48 51 66 90 103 110 105 99 101 95 91 74 73 61
85 122 264 347 350 68 183 282 323 53 57 71 64 52 41 99 97 92 100 104 98 87 72 56 58 90 89 69 61 66 71 69 71 79 88 95 107 100 95 97 90 84 88 73
154 210 284 313 357 327 232 189 113 103 95 91 76 64 42 356 42 97 109 88 83 101 92 61 63 86 84 69 91 88 82 75 74 82 75 81 87 96 99 89 88 86 85 88
92 319 332 302 302 304 328 140 129 124 127 126 124 122 113 26 299 58 74 91 88 94 89 85 71 68 82 97 98 93 85 78 79 83 88 59 71 74 78 86 102 96 93 88
29 279 287 265 283 226 144 106 117 115 127 136 143 163 137 152 152 116 105 96 112 116 110 98 92 86 80 82 90 86 86 88 90 96 88 80 56 49 75 42 89 115 103 112
204 207 197 206 212 215 190 178 186 145 120 116 131 112 121 138 148 135 132 134 129 123 117 111 106 100 97 92 101 106 106 104 95 99 95 99 103 85 45 62 70 78 88 108
199 141 201 156 183 226 143 129 131 128 119 121 127 135 137 136 137 124 129 141 137 136 132 123 122 109 108 116 122 109 111 112 110 99 100 114 97 102 102 36 62 65 92 103
160 118 66 232 225 172 112 115 96 88 81 98 108 103 120 121 129 121 132 142 137 133 124 110 107 107 98 101 106 103 97 104 101 117 128 124 125 130 130 137 134 96 34 106
217 247 237 222 152 135 109 126 115 116 128 118 122 132 134 130 128 134 144 142 141 132 127 116 115 117 125 123 106 112 108 98 113 110 102 107 105 111 122 129 140 140 118 73
192 188 130 143 157 154 137 128 125 139 134 123 129 128 124 130 133 132 135 131 140 145 141 121 128 151 145 135 126 112 105 137 149 139 137 140 150 147 139 152 148 156 157 174
122 186 187 184 189 193 192 176 152 155 147 149 147 136 137 137 136 138 137 137 132 138 156 156 172 162 157 159 156 147 144 157 181 175 165 176 176 181 177 164 173 188 197 189
246 205 188 187 190 191 187 161 157 162 169 161 152 139 140 145 152 144 137 137 119 123 175 181 159 159 164 169 161 159 160 183 198 200 193 194 199 190 196 191 197 199 212 222
223 229 198 202 204 187 159 159 190 162 135 145 152 145 144 149 148 151 146 145 156 155 208 179 172 168 190 207 183 184 199 212 215 211 200 198 196 197 202 210 201 213 195 210
227 210 201 191 170 162 153 170 163 154 146 138 127 121 128 141 135 134 130 126 154 164 188 208 183 177 240 292 192 188 227 246 207 199 172 169 182 190 202 204 205 205 203 207
234 183 167 171 132 112 159 156 154 160 151 148 154 154 146 146 126 124 118 96 12 33 84 91 98 106 69 138 84 55 300 150 180 187 183 177 168 185 204 203 207 204 204 202
142 124 113 114 104 86 76 73 99 133 142 137 130 127 129 126 109 89 75 108 77 53 71 53 54 40 118 59 46 53 348 350 282 203 179 175 190 194 209 209 206 209 206 200
102 120 112 118 115 108 91 79 78 114 137 129 132 133 126 121 125 125 102 53 85 87 85 78 279 144 118 136 170 324 318 353 342 158 196 200 215 220 218 212 213 203 204 205
86 81 89 107 89 85 84 92 93 99 100 94 91 108 125 118 82 69 108 120 106 87 103 195 245 62 20 334 326 308 307 303 285 225 226 258 243 249 248 231 217 211 205 198
87 88 90 86 89 90 96 104 102 94 93 94 92 89 87 69 105 119 123 85 83 109 149 266 288 285 211 281 317 309 318 302 276 193 218 280 286 262 259 238 229 212 206 210
74 76 75 78 85 92 100 102 97 103 111 103 90 92 89 82 91 93 69 79 119 167 256 259 258 290 293 274 268 284 301 312 340 252 239 241 249 256 249 258 253 233 222 216
69 70 82 78 71 78 90 103 104 95 96 104 97 86 96 98 88 96 157 218 222 225 240 254 263 259 260 253 246 266 269 285 286 291 267 239 224 225 225 246 248 243 237 228